DW8913 Sea Isle City NJ US current weather conditions

sailwx.info

Wind from 239

Air temperature 28.3° C
Dewpoint 19.8° C

Last reported at 2020-Aug-05 23:46 UTC.
Time now 2020-Aug-06 00:31 UTC

Location: N 39°09' W 074°42'.
View on Google Maps.

See reports from other nearby stations

  
Tides and Currents Weather Stations Pressure Air Temp Water Temp Dewpoint Dewpoint Depression Visibility Wind Speed Wind Dir Waves Ship Positions
date/time (UTC)wind fromknots sea level pressurealtimeterstation pressurevisibilityair tempwater tempwave heightnotes
2020-Aug-05 23:46 239 28.3
2020-Aug-05 23:30 299 28.3
2020-Aug-05 23:01 245 29.4
2020-Aug-05 22:30 304 30.0
2020-Aug-05 22:15 286 30.6
2020-Aug-05 22:01 243 30.6
2020-Aug-05 21:46 248 30.6
2020-Aug-05 21:30 197 30.6
2020-Aug-05 21:16 190 31.1
2020-Aug-05 21:00 301 30.6
2020-Aug-05 20:31 264 31.1
2020-Aug-05 20:15 240 30.6
2020-Aug-05 19:46 134 26.1
2020-Aug-05 19:30 148 26.1
2020-Aug-05 19:01 135 0 gusting 6 26.1
2020-Aug-05 18:31 131 0 gusting 6 25.6
2020-Aug-05 18:15 148 26.1
2020-Aug-05 17:46 110 0 gusting 6 26.1
2020-Aug-05 17:30 127 26.7
2020-Aug-05 17:18 133 26.1
2020-Aug-05 17:00 134 26.1
2020-Aug-05 16:32 116 26.7
2020-Aug-05 16:15 174 26.7
2020-Aug-05 15:45 200 26.1
2020-Aug-05 15:30 131 25.6
2020-Aug-05 15:16 133 25.0
2020-Aug-05 15:01 129 0 gusting 5 25.6
2020-Aug-05 14:45 082 26.1
2020-Aug-05 14:31 115 26.1
2020-Aug-05 14:15 066 26.1
2020-Aug-05 13:46 093 26.1
2020-Aug-05 13:31 121 26.1
2020-Aug-05 13:16 107 26.1
2020-Aug-05 13:01 087 26.7
2020-Aug-05 12:47 333 26.1
2020-Aug-05 12:31 226 25.0
2020-Aug-05 12:16 174 23.9
2020-Aug-05 12:00
2020-Aug-05 11:47
2020-Aug-05 11:30
2020-Aug-05 11:16
2020-Aug-05 11:00
2020-Aug-05 10:45
2020-Aug-05 10:31 139 -67.8
2020-Aug-05 10:15 216 20.0
2020-Aug-05 10:04 125 20.0
2020-Aug-05 09:46
2020-Aug-05 09:31 139 20.0
2020-Aug-05 09:15 156 20.0
2020-Aug-05 09:00 167 20.0
2020-Aug-05 08:45 198 20.6
2020-Aug-05 08:30 129 20.6
2020-Aug-05 08:15 147 20.6
2020-Aug-05 08:00 150 20.6
2020-Aug-05 07:45 107 20.6
2020-Aug-05 07:30 157 20.6
2020-Aug-05 06:00 176 21.1
2020-Aug-05 05:30 240 20.6
2020-Aug-05 05:00 113 21.1
2020-Aug-05 04:45 135 21.7
2020-Aug-05 04:31 150 21.1
2020-Aug-05 04:16 168 21.1
2020-Aug-05 04:00 210 20.6
2020-Aug-05 03:46 186 21.1
2020-Aug-05 03:31 197 0 gusting 6 21.1
2020-Aug-05 03:15 215 22.8
2020-Aug-05 02:46 188 2 gusting 9 22.8
2020-Aug-05 02:30 206 0 gusting 8 23.3
2020-Aug-05 02:01 163 1 gusting 11 23.9
2020-Aug-05 01:45 179 1 gusting 11 23.9
2020-Aug-05 01:31 214 4 gusting 13 23.3
2020-Aug-05 00:47 179 2 gusting 11 22.8
2020-Aug-05 00:31 229 1 gusting 13 22.8
2020-Aug-05 00:16
2020-Aug-04 16:46 212 22 gusting 45 22.8
2020-Aug-04 16:31 211 21 gusting 34 23.3
2020-Aug-04 16:15 137 11 gusting 24 21.7
2020-Aug-04 16:01 105 16 gusting 33 20.6
2020-Aug-04 15:46 100 20 gusting 46 20.6
2020-Aug-04 15:32 085 26 gusting 42 20.6
2020-Aug-04 14:46 145 25 gusting 39 23.3
2020-Aug-04 14:30 141 23 gusting 40 23.3
2020-Aug-04 14:01 117 22 gusting 39 22.8
2020-Aug-04 13:45
2020-Aug-04 13:30
2020-Aug-04 13:16
2020-Aug-04 12:46
2020-Aug-04 12:15
2020-Aug-04 12:00
2020-Aug-04 11:46
2020-Aug-04 11:30
2020-Aug-04 11:17
2020-Aug-04 10:45
2020-Aug-04 10:31
2020-Aug-04 10:15
2020-Aug-04 09:46
2020-Aug-04 09:16
2020-Aug-04 09:00
2020-Aug-04 08:31
2020-Aug-04 08:15 098 22.8
2020-Aug-04 08:02 095 22.8
2020-Aug-04 07:45 095 22.8
2020-Aug-04 07:30 145 22.8
2020-Aug-04 07:16 115 22.8
2020-Aug-04 07:01 086 22.8
2020-Aug-04 06:45 098 22.8
2020-Aug-04 06:31 037 22.8
2020-Aug-04 06:16 056 23.3
2020-Aug-04 05:46 036 23.3
2020-Aug-04 05:30 057 22.8
2020-Aug-04 05:16 072 23.3
2020-Aug-04 05:00 129 23.9
2020-Aug-04 04:31 130 23.9
2020-Aug-04 04:15 181 24.4
2020-Aug-04 03:46 103 23.9
2020-Aug-04 03:30 169 23.3
2020-Aug-04 03:01 095 23.9
2020-Aug-04 02:45 162 23.9
2020-Aug-04 02:16 136 23.9
2020-Aug-04 02:00 076 22.2
2020-Aug-04 01:47 193 21.7
2020-Aug-04 01:15 051 23.3
2020-Aug-04 01:04 063 23.9
2020-Aug-04 00:45 221 23.9
2020-Aug-04 00:31 212 23.9
2020-Aug-04 00:16 165 23.9
2020-Aug-04 00:00 169 2 gusting 7 23.3